Location: Long Geng
(2.6167°N, 114.1333°E)
Time: 20:10:03
(UTC+00:00)

Cosmos-2242 - Pass Details

Date: 14 May 2021
Orbit: 591 x 616 km, 82.5° (Epoch: 16 June)

Event Time Altitude Azimuth Distance (km) Brightness Sun altitude
Rises 21:26:48 0° 6° (N) 2,839 6.8 -11.7°
Reaches altitude 10° 21:29:04 10° 13° (NNE) 1,943 6.1 -11.1°
Maximum altitude 21:33:12 46° 86° (E) 820 4.3 -10.2°
Drops below altitude 10° 21:37:22 10° 160° (SSE) 1,964 5.7 -9.2°
Sets 21:39:39 0° 166° (SSE) 2,874 6.4 -8.6°
